| time (UTC) | temp F | wind direction | speed MPH | gust MPH | rain 1hr in | rain 24hr in | rain mn in | humidity % | barometer mb |
| 20260507163034 | 71 | 117 | 6.0 | 11.0 | 0.00 | 0.00 | 0.00 | 47 | 1009.5 |
| 20260507161534 | 71 | 112 | 5.0 | 12.0 | 0.00 | 0.00 | 0.00 | 47 | 1009.4 |
| 20260507160035 | 71 | 69 | 6.0 | 13.0 | 0.00 | 0.00 | 0.00 | 46 | 1009.6 |
| 20260507154532 | 71 | 360 | 3.0 | 10.0 | 0.00 | 0.00 | 0.00 | 46 | 1009.7 |
| 20260507153030 | 71 | 360 | 5.0 | 13.0 | 0.00 | 0.00 | 0.00 | 47 | 1009.5 |
| 20260507151530 | 71 | 360 | 4.0 | 11.0 | 0.00 | 0.00 | 0.00 | 47 | 1009.7 |
| 20260507150033 | 71 | 360 | 3.0 | 18.0 | 0.00 | 0.00 | 0.00 | 48 | 1009.8 |
| 20260507144528 | 71 | 360 | 7.0 | 15.0 | 0.00 | 0.00 | 0.00 | 48 | 1009.8 |
| 20260507143031 | 72 | 52 | 9.0 | 17.0 | 0.00 | 0.00 | 0.00 | 46 | 1009.8 |
| 20260507141527 | 73 | 76 | 8.0 | 13.0 | 0.00 | 0.00 | 0.00 | 46 | 1009.8 |
| 20260507140127 | 73 | 140 | 2.0 | 8.0 | 0.00 | 0.00 | 0.00 | 45 | 1009.8 |
| 20260507134524 | 73 | 172 | 3.0 | 10.0 | 0.00 | 0.00 | 0.00 | 43 | 1009.8 |
| 20260507133022 | 74 | 119 | 2.0 | 8.0 | 0.00 | 0.00 | 0.00 | 42 | 1010.1 |
| 20260507131527 | 74 | 103 | 2.0 | 8.0 | 0.00 | 0.00 | 0.00 | 40 | 1010.2 |
| 20260507130020 | 75 | 147 | 2.0 | 6.0 | 0.00 | 0.00 | 0.00 | 40 | 1010.3 |
| 20260507124519 | 75 | 155 | 3.0 | 6.0 | 0.00 | 0.01 | 0.00 | 41 | 1010.2 |
| 20260507123016 | 74 | 112 | 2.0 | 7.0 | 0.00 | 0.01 | 0.00 | 44 | 1010.3 |
| 20260507121516 | 75 | 221 | 2.0 | 7.0 | 0.00 | 0.01 | 0.00 | 42 | 1010.4 |
| 20260507120029 | 74 | 211 | 3.0 | 7.0 | 0.00 | 0.01 | 0.00 | 43 | 1010.5 |
| 20260507114514 | 74 | 155 | 2.0 | 7.0 | 0.00 | 0.01 | 0.00 | 41 | 1010.5 |
| 20260507113013 | 74 | 99 | 2.0 | 9.0 | 0.00 | 0.01 | 0.00 | 43 | 1010.7 |
| 20260507111511 | 74 | 157 | 3.0 | 7.0 | 0.00 | 0.01 | 0.00 | 41 | 1010.7 |
| 20260507110010 | 74 | 212 | 3.0 | 8.0 | 0.00 | 0.01 | 0.00 | 42 | 1011.0 |
| 20260507104511 | 73 | 169 | 1.0 | 5.0 | 0.00 | 0.01 | 0.00 | 46 | 1010.9 |
| 20260507103007 | 73 | 227 | 3.0 | 7.0 | 0.00 | 0.01 | 0.00 | 48 | 1011.1 |
| 20260507101506 | 74 | 263 | 1.0 | 6.0 | 0.00 | 0.01 | 0.00 | 48 | 1011.3 |
| 20260507100002 | 72 | 25 | 4.0 | 6.0 | 0.00 | 0.01 | 0.00 | 48 | 1011.2 |
| 20260507094558 | 71 | 11 | 0.0 | 4.0 | 0.00 | 0.01 | 0.00 | 52 | 1011.3 |
| 20260507093058 | 71 | 36 | 2.0 | 6.0 | 0.00 | 0.01 | 0.00 | 53 | 1011.5 |
| 20260507091557 | 71 | 360 | 3.0 | 5.0 | 0.00 | 0.01 | 0.00 | 53 | 1011.6 |
| 20260507090055 | 69 | 130 | 1.0 | 6.0 | 0.00 | 0.01 | 0.00 | 56 | 1011.7 |
| 20260507084548 | 68 | 99 | 4.0 | 8.0 | 0.00 | 0.01 | 0.00 | 58 | 1011.7 |
| 20260507083045 | 69 | 162 | 1.0 | 6.0 | 0.00 | 0.01 | 0.00 | 58 | 1011.7 |
| 20260507081549 | 68 | 93 | 3.0 | 6.0 | 0.00 | 0.01 | 0.00 | 58 | 1011.3 |
| 20260507080044 | 67 | 12 | 0.0 | 3.0 | 0.00 | 0.01 | 0.00 | 61 | 1011.3 |
| 20260507074553 | 65 | 13 | 1.0 | 6.0 | 0.00 | 0.01 | 0.00 | 64 | 1011.3 |
| 20260507073034 | 64 | 360 | 4.0 | 9.0 | 0.00 | 0.01 | 0.00 | 64 | 1011.5 |
| 20260507071531 | 64 | 360 | 3.0 | 9.0 | 0.00 | 0.01 | 0.00 | 66 | 1011.8 |
| 20260507070029 | 63 | 355 | 2.0 | 4.0 | 0.00 | 0.01 | 0.00 | 67 | 1011.6 |
| 20260507064529 | 62 | 338 | 3.0 | 10.0 | 0.00 | 0.01 | 0.00 | 68 | 1011.4 |
| 20260507063029 | 61 | 320 | 3.0 | 9.0 | 0.00 | 0.01 | 0.00 | 69 | 1011.4 |
| 20260507061524 | 61 | 350 | 2.0 | 8.0 | 0.00 | 0.01 | 0.00 | 70 | 1011.2 |
| 20260507060025 | 60 | 301 | 2.0 | 8.0 | 0.00 | 0.01 | 0.00 | 71 | 1011.0 |
| 20260507054522 | 60 | 294 | 5.0 | 12.0 | 0.00 | 0.01 | 0.00 | 72 | 1011.0 |
| 20260507053019 | 59 | 332 | 6.0 | 15.0 | 0.00 | 0.01 | 0.00 | 73 | 1010.9 |
| 20260507051516 | 59 | 334 | 5.0 | 10.0 | 0.00 | 0.01 | 0.00 | 73 | 1011.0 |
| 20260507050024 | 59 | 17 | 3.0 | 8.0 | 0.00 | 0.01 | 0.00 | 73 | 1010.7 |
| 20260507044509 | 59 | 360 | 2.0 | 9.0 | 0.00 | 0.02 | 0.00 | 73 | 1010.8 |
| 20260507043006 | 59 | 293 | 2.0 | 7.0 | 0.00 | 0.02 | 0.00 | 74 | 1011.0 |
| 20260507041503 | 59 | 303 | 3.0 | 11.0 | 0.00 | 0.02 | 0.00 | 73 | 1010.9 |
| 20260507040005 | 59 | 294 | 3.0 | 8.0 | 0.00 | 0.02 | 0.00 | 72 | 1010.6 |
| 20260507034602 | 60 | 316 | 2.0 | 5.0 | 0.00 | 0.02 | 0.00 | 72 | 1010.6 |
| 20260507033104 | 60 | 291 | 3.0 | 8.0 | 0.00 | 0.02 | 0.00 | 72 | 1010.9 |
| 20260507031607 | 60 | 317 | 4.0 | 6.0 | 0.00 | 0.02 | 0.00 | 71 | 1010.7 |
| 20260507030057 | 60 | 360 | 1.0 | 4.0 | 0.00 | 0.02 | 0.00 | 70 | 1010.8 |
| 20260507024552 | 61 | 345 | 2.0 | 5.0 | 0.00 | 0.02 | 0.00 | 69 | 1011.0 |
| 20260507023059 | 61 | 5 | 2.0 | 5.0 | 0.00 | 0.02 | 0.00 | 68 | 1010.9 |
| 20260507021547 | 62 | 320 | 1.0 | 5.0 | 0.00 | 0.02 | 0.00 | 69 | 1010.8 |
| 20260507020049 | 62 | 349 | 1.0 | 5.0 | 0.00 | 0.02 | 0.00 | 69 | 1010.9 |
| 20260507014551 | 62 | 355 | 1.0 | 4.0 | 0.00 | 0.02 | 0.00 | 69 | 1010.9 |
| 20260507013045 | 62 | 355 | 1.0 | 5.0 | 0.00 | 0.02 | 0.00 | 69 | 1011.0 |
| 20260507011543 | 62 | 5 | 0.0 | 8.0 | 0.00 | 0.02 | 0.00 | 69 | 1011.0 |
| 20260507010042 | 62 | 5 | 2.0 | 6.0 | 0.00 | 0.02 | 0.00 | 69 | 1011.3 |
| 20260507004538 | 62 | 5 | 3.0 | 8.0 | 0.00 | 0.02 | 0.00 | 69 | 1011.3 |
| 20260507003038 | 63 | 346 | 4.0 | 8.0 | 0.00 | 0.02 | 0.00 | 69 | 1011.4 |
| 20260507001537 | 63 | 265 | 0.0 | 3.0 | 0.00 | 0.02 | 0.00 | 69 | 1011.4 |
| 20260507000037 | 63 | 265 | 2.0 | 4.0 | 0.00 | 0.02 | 0.00 | 68 | 1011.6 |
| 20260506234531 | 63 | 266 | 1.0 | 4.0 | 0.00 | 0.02 | 0.00 | 68 | 1011.8 |
| 20260506233033 | 63 | 266 | 1.0 | 3.0 | 0.00 | 0.02 | 0.00 | 68 | 1012.0 |
| 20260506231529 | 63 | 252 | 0.0 | 0.0 | 0.00 | 0.02 | 0.00 | 67 | 1012.0 |
| 20260506230028 | 64 | 252 | 0.0 | 0.0 | 0.00 | 0.02 | 0.00 | 67 | 1012.1 |
| 20260506224527 | 64 | 252 | 0.0 | 0.0 | 0.00 | 0.02 | 0.00 | 67 | 1012.0 |
| 20260506223025 | 64 | 252 | 0.0 | 3.0 | 0.00 | 0.02 | 0.00 | 67 | 1011.8 |
| 20260506221523 | 64 | 131 | 0.0 | 2.0 | 0.00 | 0.02 | 0.00 | 67 | 1011.8 |
| 20260506220024 | 64 | 130 | 0.0 | 3.0 | 0.00 | 0.02 | 0.00 | 67 | 1011.7 |
| 20260506214521 | 64 | 171 | 2.0 | 5.0 | 0.00 | 0.02 | 0.02 | 67 | 1011.9 |
| 20260506213020 | 64 | 159 | 1.0 | 6.0 | 0.00 | 0.02 | 0.02 | 68 | 1012.0 |
| 20260506211521 | 64 | 188 | 1.0 | 9.0 | 0.00 | 0.02 | 0.02 | 68 | 1012.1 |
| 20260506210018 | 64 | 250 | 3.0 | 10.0 | 0.00 | 0.02 | 0.02 | 67 | 1012.1 |
| 20260506204524 | 64 | 219 | 2.0 | 9.0 | 0.00 | 0.02 | 0.02 | 67 | 1011.9 |
| 20260506203019 | 64 | 176 | 2.0 | 3.0 | 0.00 | 0.02 | 0.02 | 66 | 1011.7 |
| 20260506201519 | 64 | 217 | 1.0 | 5.0 | 0.00 | 0.02 | 0.02 | 66 | 1011.5 |
| 20260506200016 | 64 | 286 | 0.0 | 6.0 | 0.00 | 0.02 | 0.02 | 67 | 1011.4 |
| 20260506194518 | 64 | 266 | 2.0 | 4.0 | 0.00 | 0.02 | 0.02 | 67 | 1011.1 |
| 20260506193015 | 64 | 183 | 0.0 | 4.0 | 0.00 | 0.02 | 0.02 | 66 | 1011.3 |
| 20260506191516 | 64 | 157 | 1.0 | 6.0 | 0.00 | 0.02 | 0.02 | 66 | 1011.4 |
| 20260506190014 | 64 | 191 | 2.0 | 7.0 | 0.00 | 0.02 | 0.02 | 66 | 1011.5 |
| 20260506184513 | 64 | 192 | 5.0 | 11.0 | 0.00 | 0.02 | 0.02 | 65 | 1011.6 |
| 20260506183011 | 64 | 221 | 3.0 | 10.0 | 0.00 | 0.02 | 0.02 | 65 | 1011.7 |
| 20260506181511 | 65 | 360 | 2.0 | 11.0 | 0.00 | 0.02 | 0.02 | 66 | 1011.3 |
| 20260506180010 | 66 | 360 | 2.0 | 9.0 | 0.00 | 0.02 | 0.02 | 67 | 1011.1 |
| 20260506174510 | 66 | 360 | 4.0 | 11.0 | 0.00 | 0.02 | 0.02 | 67 | 1010.9 |
| 20260506173011 | 67 | 360 | 3.0 | 8.0 | 0.00 | 0.02 | 0.02 | 66 | 1010.8 |
| 20260506171512 | 67 | 360 | 2.0 | 9.0 | 0.00 | 0.02 | 0.02 | 66 | 1010.5 |
| 20260506170008 | 68 | 360 | 2.0 | 9.0 | 0.00 | 0.02 | 0.02 | 64 | 1010.3 |
| 20260506164507 | 68 | 360 | 4.0 | 7.0 | 0.00 | 0.02 | 0.02 | 62 | 1010.1 |